Weather Roundup
Issued by NWS

Home | Current Version | Previous Version | Graphics & Text | Print | Product List | Glossary Off
Versions: 1 2 3 4 5 6 7 8 9 10 11 12 13 14 15 16 17 18 19 20 21 22 23 24 25 26 27 28 29 30 31 32 33 34 35 36 37 38 39 40 41 42 43 44 45 46 47 48 49 50

000
NZUS93 KARX 231759
HRRWXR

CURRENT HOURLY OBSERVATIONS ACROSS
MUCH OF THE UPPER MISSISSIPPI VALLEY
NATIONAL WEATHER SERVICE LA CROSSE WI
1200 PM CST TUE JAN 23 2018


...SOUTHEAST MINNESOTA...


CITY           SKY/WX    TMP DP  RH WIND       PRES   REMARKS
ROCHESTER      CLOUDY    20  17  88 NW13      29.99R WCI   7
ROCHESTER/MAYO CLOUDY    22  18  85 W10       30.00R WCI  11
WINONA         CLOUDY    23  18  80 NW10      30.00R WCI  12
AUSTIN         NOT AVBL
ALBERT LEA     CLOUDY    19  16  86 NW9       30.04S WCI   9
DODGE CENTER   PTSUNNY   19  16  86 NW13      30.00S WCI   7
PRESTON        CLOUDY    20  17  86 N12       29.99S WCI   8
OWATONNA       CLOUDY    19  16  86 NW10      30.04R WCI   8
FARIBAULT      CLOUDY    19  14  79 NW7       30.06R WCI  10
$$

...ELSEWHERE IN MINNESOTA...


CITY           SKY/WX    TMP DP  RH WIND       PRES   REMARKS
MINNEAPOLIS    FAIR      22  14  71 NW9       30.06R WCI  12
INTNL FALLS    FAIR       9  -1  64 CALM      30.09F
DULUTH         FAIR      16   4  59 N7        30.00S WCI   6
RED WING       PTSUNNY   21  12  68 NW8       30.03R WCI  12
REDWOOD FALLS  FAIR      27  16  63 NW8       30.10F WCI  19
MANKATO        FAIR      21  14  74 NW12      30.08S WCI   9
WORTHINGTON    CLOUDY    23  20  88 NW13      30.11R WCI  11
FAIRMONT       FAIR      24  19  81 NW16      30.10R WCI  11
$$

...SOUTHWEST WISCONSIN...


CITY           SKY/WX    TMP DP  RH WIND       PRES   REMARKS
LA CROSSE      CLOUDY    25  19  78 NW13      30.00R WCI  14
PRAIRIE DU CHI CLOUDY    26  20  79 NW15      29.99R WCI  13
BOSCOBEL       CLOUDY    28  22  78 NW8       29.97R WCI  20
LONE ROCK      NOT AVBL
PLATTEVILLE    CLOUDY    29  28  96 NW17      29.91R WCI  17
FORT MC COY    CLOUDY    24  21  89 NW9       29.97S WCI  14
MAUSTON-NEW LI CLOUDY    24  21  86 NW13G20   29.91S FOG     WCI  13
VIROQUA        CLOUDY    23  22  96 NW13G18   29.93R WCI  11
WIS DELLS      CLOUDY    25  22  88 NW9G17    29.90R WCI  15
$$

...ELSEWHERE IN WISCONSIN...


CITY           SKY/WX    TMP DP  RH WIND       PRES   REMARKS
MILWAUKEE      CLOUDY    29  22  75 NW13G28   29.82R WCI  19
MADISON        FLURRIES  27  22  81 N13G29    29.88R WCI  16
GREEN BAY      CLOUDY    28  21  75 NW14G25   29.84R WCI  17
EAU CLAIRE     NOT AVBL
BLACK RVR FLS  CLOUDY    24  18  79 N10G17    29.97R WCI  13
MEDFORD        CLOUDY    19  15  81 N13G18    29.90R WCI   7
WAUSAU         CLOUDY    22  16  78 N13G22    29.87R WCI  10
WIS RAPIDS     NOT AVBL
MARSHFIELD     CLOUDY    22  18  85 N15       29.89S WCI   9
RICE LAKE      CLOUDY    18  13  81 N9        30.01S WCI   7
$$

...NORTHEAST IOWA...


CITY           SKY/WX    TMP DP  RH WIND       PRES   REMARKS
WATERLOO       CLOUDY    24  18  77 NW17      30.03S WCI  11
DUBUQUE        CLOUDY    26  22  84 NW18      29.94R WCI  13
DECORAH        CLOUDY    21  19  93 NW17G23   29.97S WCI   7
MASON CITY     CLOUDY    20  15  81 NW20      30.06R WCI   4
CHARLES CITY   MIX PCPN  23  23 100 NW18      30.03R WCI   9
OELWEIN        MIX PCPN  23  23 100 NW21      30.01S WCI   8
$$

...ELSEWHERE IN IOWA...


CITY           SKY/WX    TMP DP  RH WIND       PRES   REMARKS
DES MOINES     CLOUDY    27  20  75 NW16G26   30.11S WCI  15
IOWA CITY      CLOUDY    31  21  66 NW23G29   30.03R WCI  18
FORT DODGE     CLOUDY    24  19  81 NW14G20   30.11S WCI  12
MARSHALLTOWN   PTSUNNY   27  21  78 NW22G28   30.05F WCI  13
CEDAR RAPIDS   CLOUDY    28  21  75 NW21      30.01R WCI  15
$$

...NORTHERN ILLINOIS...


CITY           SKY/WX    TMP DP  RH WIND       PRES   REMARKS
CHICAGO-OHARE  CLOUDY    30  23  75 NW14G22   29.83R WCI  19
CHICAGO-MIDWAY CLOUDY    31  27  85 NW12      29.84R WCI  22
MOLINE         CLOUDY    32  25  75 NW21G28   29.96R WCI  20
ROCKFORD       CLOUDY    30  22  72 NW13      29.90R WCI  20
PEORIA         CLOUDY    32  24  72 NW10G24   29.95R WCI  24
$$

NOTE: "FAIR" INDICATES FEW OR NO CLOUDS BELOW 12,000 FEET WITH NO
SIGNIFICANT WEATHER AND/OR OBSTRUCTIONS TO VISIBILITY. WIND
SPEEDS ARE IN MILES-PER-HOUR.




USA.gov is the U.S. government's official web portal to all federal, state and local government web resources and services.